Regional Weather Roundup
Issued by NWS Cleveland, OH

Home | Current Version | Previous Version | Graphics & Text | Print | Product List | Glossary On
Versions: 1 2 3 4 5 6 7 8 9 10 11 12 13 14 15 16 17 18 19 20 21 22 23 24 25 26 27 28 29 30 31 32 33 34 35 36 37 38 39 40 41 42 43 44 45 46 47 48 49 50
000
ASUS41 KCLE 310110
RWRCLE
OHIO REGIONAL WEATHER ROUNDUP
NATIONAL WEATHER SERVICE WILMINGTON, OH
900 PM EDT THU OCT 30 2014

NOTE: "FAIR" INDICATES FEW OR NO CLOUDS BELOW 12,000 FEET WITH NO
SIGNIFICANT WEATHER AND/OR OBSTRUCTIONS TO VISIBILITY.

OHZ001>008-015>018-024>027-034-035-043-044-310200-
   NORTHWEST OHIO

CITY           SKY/WX    TMP DP  RH WIND       PRES   REMARKS
DEFIANCE       CLOUDY    46  36  68 S3        30.07F
FINDLAY        CLOUDY    47  36  65 W5        30.06F
TOLEDO EXPRESS CLOUDY    46  35  65 SW5       30.06F
TOLEDO METCALF CLOUDY    48  36  63 SW5       30.07F
LIMA           CLOUDY    45  38  76 CALM      30.07F
$$

OHZ009>014-019>023-028>033-038-089-310200-
   NORTHEAST OHIO

CITY           SKY/WX    TMP DP  RH WIND       PRES   REMARKS
CLE-HOPKINS    MOCLDY    41  36  82 CALM      30.09F
CLE-LAKEFRONT    N/A    N/A N/A N/A MISG        N/A
CUY CO. ARPT   MOCLDY    43  39  87 SW6       30.07F
LORAIN-ELYRIA  MOCLDY    41  36  82 CALM      30.08S
ASHTABULA      PTCLDY    39  36  89 CALM      30.07S
AKRON-CANTON   CLOUDY    46  36  68 NW5       30.06S
WOOSTER        CLOUDY    46  36  68 N5        30.07S
MANSFIELD      CLOUDY    44  36  73 NE3       30.06F
YOUNGSTOWN     CLOUDY    45  37  73 NW3       30.05F
$$

OHZ042-051>053-060>062-070>072-077>081-310200-
  SOUTHWEST OHIO

CITY           SKY/WX    TMP DP  RH WIND       PRES   REMARKS
CINC-COVINGTON MOCLDY    46  33  60 CALM      30.05F
CINC-LUNKEN    CLEAR     42  36  79 CALM      30.07F
HAMILTON       CLEAR     38  34  85 CALM      30.07F
DAYTON         CLEAR     43  33  68 NE5       30.08S
WRIGHT-PAT AFB CLEAR     42  33  71 W1        30.07S
DAYTON GENERAL CLEAR     42  34  73 E6        30.05F
WILMINGTON     PTCLDY    40  33  76 E6        30.06F
$$

OHZ036-037-039>041-045>050-054>059-063>069-073>076-082>088-310200-
  CENTRAL AND SOUTHEAST OHIO

CITY           SKY/WX    TMP DP  RH WIND       PRES   REMARKS
COLUMBUS       CLOUDY    47  33  58 CALM      30.07S
OSU AIRPORT    CLOUDY    46  36  68 CALM      30.07S
BOLTON FIELD   CLOUDY    46  35  66 CALM      30.07F
RICKENBACK AFB CLOUDY    46  34  64 E3        30.07S
NEWARK         CLOUDY    47  35  63 CALM      30.07S
MARION         CLOUDY    46  35  65 CALM      30.07F
LANCASTER      CLOUDY    46  37  71 CALM      30.08S
ZANESVILLE     CLOUDY    46  33  60 CALM      30.07S
NEW PHILLY     CLOUDY    47  39  74 CALM      30.07S
$$



USA.gov is the U.S. government's official web portal to all federal, state and local government web resources and services.